Montgomery, NY

9:24 PM EST on January 19, 2018 (GMT -0500)
Orange County

Weather History for KMGJ - August, 2013

Change the Weather History Date:

Friday, August 16, 2013

  Actual Average (KSWF) Record (KSWF)
Temperature  
Mean Temperature 64 °F -  
Max Temperature 78 °F 79 °F 95 °F (1988)
Min Temperature 51 °F 60 °F 47 °F (1980)
Growing Degree Days 14 (Base 50)    
Moisture  
Dew Point 54 °F    
Average Humidity 74    
Maximum Humidity 96    
Minimum Humidity 40    
Precipitation  
Precipitation 0.01 in - - ()
Sea Level Pressure  
Sea Level Pressure 30.16 in    
Wind  
Wind Speed 1 mph (WSW)    
Max Wind Speed 5 mph    
Max Gust Speed -    
Visibility 10 miles    
Events      
Averages and records for this station are not official NWS values.
T = Trace of Precipitation, MM = Missing Value Source: NWS Daily Summary

Daily Weather History Graph

Daily Weather History Graph

Search for Another Location

Airport or City:

Trip Planner

Search our weather history database for the weather conditions in past years. The results will help you decide how hot, cold, wet, or windy it might be!

Date:

Astronomy

Aug. 16, 2013 Rise Set
Actual Time 6:07 AM EDT 7:54 PM EDT
Civil Twilight 5:37 AM EDT 8:24 PM EDT
Nautical Twilight 5:01 AM EDT 9:00 PM EDT
Astronomical Twilight 4:22 AM EDT 9:38 PM EDT
Moon 4:12 PM EDT (8/16) 1:05 AM EDT (8/16)
Length of Visible Light 14h 46m
Length of Day
13h 47m
Waxing Gibbous, 74% of the Moon is Illuminated
Aug 16
Waxing Gibbous
Aug 20
Full
Aug 28
Last Quarter
Sep 5
New
Sep 12
First Quarter

Hourly Weather History & Observations

Time (EDT) Temp. Dew Point Humidity Pressure Visibility Wind Dir Wind Speed Gust Speed Precip Events Conditions
1:54 AM 54.0 °F 52.0 °F 93% 30.14 in 10.0 mi Calm Calm - N/A   Scattered Clouds
2:54 AM 53.1 °F 51.1 °F 93% 30.14 in 10.0 mi Calm Calm - N/A   Mostly Cloudy
3:54 AM 54.0 °F 52.0 °F 93% 30.14 in 10.0 mi Calm Calm - N/A   Partly Cloudy
4:54 AM 53.1 °F 51.1 °F 93% 30.14 in 10.0 mi Calm Calm - N/A   Partly Cloudy
5:54 AM 51.1 °F 50.0 °F 96% 30.15 in 10.0 mi Calm Calm - 0.01 in   Clear
6:54 AM 53.1 °F 51.1 °F 93% 30.16 in 10.0 mi Calm Calm - N/A   Clear
7:54 AM 57.0 °F 54.0 °F 89% 30.17 in 10.0 mi Calm Calm - N/A   Clear
8:54 AM 62.1 °F 55.9 °F 80% 30.17 in 10.0 mi Calm Calm - N/A   Clear
9:54 AM 66.9 °F 57.9 °F 73% 30.17 in 10.0 mi Calm Calm - N/A   Clear
10:54 AM 72.0 °F 55.9 °F 57% 30.17 in 10.0 mi Calm Calm - N/A   Clear
11:54 AM 73.9 °F 55.9 °F 53% 30.17 in 10.0 mi WSW 3.5 mph - N/A   Partly Cloudy
12:54 PM 73.9 °F 55.0 °F 52% 30.16 in 10.0 mi SSE 3.5 mph - N/A   Mostly Cloudy
1:54 PM 73.9 °F 54.0 °F 50% 30.17 in 10.0 mi West 3.5 mph - N/A   Overcast
2:54 PM 75.9 °F 51.1 °F 42% 30.15 in 10.0 mi West 4.6 mph - N/A   Partly Cloudy
3:54 PM 75.9 °F 52.0 °F 43% 30.14 in 10.0 mi Calm Calm - N/A   Scattered Clouds
4:54 PM 78.1 °F 52.0 °F 40% 30.14 in 10.0 mi Calm Calm - N/A   Clear
5:54 PM 77.0 °F 52.0 °F 42% 30.15 in 10.0 mi SSW 4.6 mph - N/A   Clear
6:54 PM 73.9 °F 60.1 °F 62% 30.15 in 10.0 mi Calm Calm - N/A   Clear
7:54 PM 64.9 °F 60.1 °F 84% 30.17 in 10.0 mi Calm Calm - N/A   Clear
8:54 PM 63.0 °F 59.0 °F 87% 30.17 in 10.0 mi Calm Calm - N/A   Clear
9:54 PM 60.1 °F 57.9 °F 93% 30.19 in 10.0 mi Calm Calm - N/A   Clear
10:54 PM 59.0 °F 57.0 °F 93% 30.20 in 10.0 mi Calm Calm - N/A   Clear
11:54 PM 57.0 °F 55.0 °F 93% 30.20 in 10.0 mi Calm Calm - N/A   Clear